User: anonymous   Login
Location: Unspecified
(0.0000°N, 0.0000°E)
Time: 20:39:46
(UTC+00:00)
Language:

USA 227 - Orbit

View from above orbital plane
View from above orbital plane
View from above satellite
View from above satellite

Ground track
Ground track

The orbit data is extracted from the following two-line orbital elements,

1 37377U 11011A   20326.25967526 0.00000000  00000-0  00000-0 0    09
2 37377   4.5546  13.0960 0003840 170.4802 189.5411  1.00270000    08
Epoch (UTC): 21 November 2020 06:13:55
Eccentricity: 0.0003840
inclination: 4.5546°
perigee height: 35770 km
apogee height: 35803 km
right ascension of ascending node: 13.0960°
argument of perigee: 170.4802°
revolutions per day: 1.00270000
mean anomaly at epoch: 189.5411°
orbit number at epoch: 0

The dashed part of the orbit path shows where the satellite is in the earth's shadow,  

DLR